[[{"header":{"parameterUnit":"m.s-1","parameterCategory":1,"la1":30.2991,"la2":30.254,"lo1":-89.0895,"lo2":-89.0444,"dy":0.0017,"dx":0.0017,"nx":28,"ny":28,"refTime":"2023-10-04T09:00:00:Z","depth":0,"parameterNumber":2,"parameterNumberName":"U-component_of_WINDS"},"data":[0,0,0,0,0,0,0,0,0,0,0,0,0,0,0,0,0,0,0,0,0,0,0,0,0,0,0,0,0,0,0,0,0,0,0,0,0,0,0,0,0,0,0,0,0,0,0,0,0,0,0,0,0,0,0,0,0,0,-4.7451,-4.7451,0,-4.7409,-4.7408,-4.7408,-4.7261,-4.7258,-4.7254,-4.7251,-4.721,-4.7212,-4.7214,0,0,0,0,0,0,0,0,0,0,0,0,0,-4.741,-4.7412,-4.7451,-4.7451,-4.745,-4.7409,-4.7408,-4.7408,-4.7261,-4.7257,-4.7253,-4.725,-4.7209,-4.7212,-4.7214,0,0,0,0,0,0,0,0,0,0,0,0,0,-4.7404,-4.7412,-4.7451,-4.7372,-4.7365,-4.7409,-4.7408,-4.7408,-4.7262,-4.7257,-4.7252,-4.7248,-4.7209,-4.7212,-4.7215,-4.7333,0,0,-4.7224,-4.7225,0,0,0,0,0,0,0,0,-4.7405,-4.7406,-4.7384,-4.7378,-4.7369,-4.7335,-4.7379,-4.7383,-4.7264,-4.7301,-4.7251,-4.7245,-4.7256,-4.7255,-4.7258,-4.7331,-4.7329,-4.7224,-4.7226,-4.7227,-4.7228,0,0,0,0,0,0,0,-4.7405,-4.7407,-4.7434,-4.7384,-4.7375,-4.734,-4.7334,-4.7379,-4.7307,-4.7298,-4.7287,-4.7284,-4.7251,-4.7255,-4.7256,-4.7328,-4.7224,-4.7227,-4.7228,-4.723,-4.7498,-4.7503,0,0,0,0,0,0,-4.7416,-4.7408,-4.7436,-4.7433,-4.7375,-4.7345,-4.7338,-4.7351,-4.7306,-4.7294,-4.7288,-4.7277,-4.7253,-4.7252,-4.7254,-4.7388,-4.7227,-4.723,-4.7232,-4.7493,-4.7499,-4.7505,0,0,0,0,0,0,-4.7416,-4.742,-4.7437,-4.7418,-4.7417,-4.7351,-4.7367,-4.7353,-4.7357,-4.7299,-4.7286,-4.7305,-4.7249,-4.7249,-4.7314,-4.7385,-4.7231,-4.7234,-4.7487,-4.7495,-4.7502,-4.7659,0,0,0,0,0,0,-4.7415,-4.7421,-4.7463,-4.742,-4.7419,-4.7498,-4.7371,-4.7356,-4.7362,-4.7347,-4.7311,-4.7301,-4.7245,-4.7311,-4.7317,-4.7386,-4.7236,-4.748,-4.749,-4.75,-4.7647,-4.7671,-4.7692,0,0,0,0,0,-4.7414,-4.751,-4.7466,-4.7471,-4.7471,-4.7502,-4.7501,-4.7434,-4.7368,-4.7411,-4.7375,-4.7302,-4.7378,-4.7319,-4.7325,-4.7396,-4.7475,-4.7487,-4.7499,-4.7637,-4.7667,-4.7692,0,0,0,0,0,0,-4.7563,-4.7502,-4.7453,-4.7537,-4.7526,-4.7477,-4.7528,-4.7468,-4.7475,-4.7461,-4.7379,-4.7372,-4.7448,-4.7429,-4.7365,-4.7509,-4.7414,-4.7428,-4.7517,-4.7545,-4.7567,-4.7568,-4.7239,0,0,0,0,0,-4.7606,-4.7635,-4.7581,-4.766,-4.7657,-4.7595,-4.7606,-4.7556,-4.7541,-4.7535,-4.7503,-4.7492,-4.7513,-4.7529,-4.7545,-4.7646,-4.7636,-4.7698,-4.7721,-4.7739,-4.7751,-4.7803,-4.783,-4.7544,-4.7544,-4.7544,0,0,-4.7693,-4.7664,-4.7687,-4.7689,-4.7674,-4.7707,-4.7591,-4.7631,-4.7655,-4.7541,-4.7599,-4.7577,-4.756,-4.7643,-4.7678,-4.7629,-4.7829,-4.7755,-4.777,-4.7771,-4.7818,-4.7845,-4.7869,-4.7553,-4.7551,-4.755,0,0,-4.7868,-4.785,-4.7913,-4.7902,-4.7882,-4.7841,-4.7857,-4.7818,-4.7798,-4.7856,-4.7772,-4.7801,-4.784,-4.7831,-4.7831,-4.8011,-4.7943,-4.8019,-4.8134,-4.8186,-4.8208,-4.8228,-4.829,-4.8313,-4.8032,-4.8032,-4.8032,0,-4.7979,-4.8024,-4.7954,-4.8,-4.8003,-4.7904,-4.7969,-4.7962,-4.7948,-4.7954,-4.79,-4.7947,-4.7929,-4.8009,-4.8053,-4.8058,-4.8073,-4.8019,-4.8211,-4.823,-4.8247,-4.8305,-4.8329,-4.8041,-4.804,-4.8039,-4.8038,0,-4.8162,-4.8196,-4.825,-4.8239,-4.825,-4.8305,-4.8245,-4.8265,-4.8216,-4.8182,-4.8243,-4.8219,-4.8228,-4.8245,-4.8197,-4.8319,-4.8289,-4.8226,-4.8128,-4.8284,-4.8337,-4.8359,-4.8054,-4.8051,-4.8048,-4.8046,0,0,-4.8422,-4.8376,-4.8397,-4.8391,-4.8365,-4.839,-4.8443,-4.8452,-4.8471,-4.8468,-4.8509,-4.8546,-4.8487,-4.8489,-4.844,-4.8487,-4.8629,-4.8416,-4.8415,-4.8454,-4.876,-4.8806,-4.8833,-4.8587,-4.8591,-4.8594,-4.8761,0,-4.8587,-4.8671,-4.8612,-4.8707,-4.8737,-4.8647,-4.8693,-4.8683,-4.8654,-4.8677,-4.8645,-4.8672,-4.8593,-4.8593,-4.8635,-4.8602,-4.8688,-4.859,-4.8624,-4.8626,-4.8626,-4.8861,-4.8908,-4.9066,-4.8781,-4.8785,-4.8788,0,-4.8787,-4.8793,-4.8891,-4.886,-4.8871,-4.8913,-4.8918,-4.8942,-4.893,-4.8906,-4.891,-4.8851,-4.8902,-4.8811,-4.8881,-4.8815,-4.8827,-4.8814,-4.8818,-4.8815,-4.8712,-4.886,-4.9115,-4.9138,-4.882,-4.8817,-4.8815,0,-4.8964,-4.8997,-4.906,-4.9059,-4.9025,-4.9057,-4.9045,-4.9028,-4.9039,-4.9045,-4.9051,-4.9065,-4.9071,-4.9083,-4.903,-4.8969,-4.9107,-4.9011,-4.9087,-4.9088,-4.9115,-4.9113,-4.9372,-4.9131,-4.913,-4.913,-4.9129,0,-4.9151,-4.9213,-4.9139,-4.9177,-4.9246,-4.918,-4.9251,-4.9229,-4.9216,-4.925,-4.9175,-4.9208,-4.9138,-4.9165,-4.9125,-4.9188,-4.9193,-4.9175,-4.9162,-4.9178,-4.918,-4.9181,-4.9167,-4.9136,-4.9135,-4.9133,-4.9132,0,-4.9356,-4.9309,-4.9371,-4.9337,-4.933,-4.9382,-4.9352,-4.9387,-4.9355,-4.9399,-4.9406,-4.9356,-4.9384,-4.9335,-4.9357,-4.933,-4.9418,-4.939,-4.9421,-4.9411,-4.9489,-4.9481,-4.9753,-4.9785,-4.9528,-4.953,-4.9532,0,-4.9476,-4.9522,-4.9493,-4.951,-4.9502,-4.9531,-4.9542,-4.9482,-4.9497,-4.9489,-4.9526,-4.9548,-4.9561,-4.9612,-4.9578,-4.9596,-4.9566,-4.9661,-4.9567,-4.9583,-4.9563,-4.956,-4.9563,-4.9678,-4.9681,-4.9683,-4.9685,0,-4.9692,-4.9668,-4.9686,-4.9698,-4.9714,-4.972,-4.9721,-4.974,-4.9677,-4.9698,-4.9726,-4.9737,-4.9761,-4.9784,-4.9794,-4.9783,-4.9724,-4.9716,-4.9734,-4.9748,-4.9763,-4.9753,-4.9468,-4.9708,-4.9706,-4.9704,-4.9703,-4.9702,-4.9856,-4.9893,-4.9879,-4.9903,-4.9899,-4.9903,-4.9934,-4.9908,-4.993,-4.9944,-4.9908,-4.9945,-4.9936,-4.9943,-4.9939,-4.9968,-4.9926,-4.9953,-4.9959,-4.9965,-4.9976,-4.9763,-4.997,-4.997,-4.9969,-4.9968,-4.9968,0,-5.0065,-5.0053,-5.0077,-5.0081,-5.0101,-5.0047,-5.0047,-5.0066,-5.01,-5.0096,-5.0113,-5.0147,-5.017,-5.0141,-5.0159,-5.0188,-5.0162,-5.0195,-5.0189,-5.0188,-5.0014,-4.9995,-5.0216,-5.0216,-5.0216,-5.0216,-5.0216,-5.0215,-5.0176,-5.0236,-5.0212,-5.027,-5.0258,-5.0293,-5.0298,-5.0302,-5.0299,-5.034,-5.0359,-5.034,-5.0327,-5.0344,-5.0364,-5.0355,-5.0364,-5.0406,-5.0388,-5.0224,-5.02,-5.0176,-5.0158,-5.041,-5.041,-5.0558,-5.0559,-5.0561]},{"header":{"parameterUnit":"m.s-1","parameterCategory":1,"la1":30.2991,"la2":30.254,"lo1":-89.0895,"lo2":-89.0444,"dy":0.0017,"dx":0.0017,"nx":28,"ny":28,"refTime":"2023-10-04T09:00:00:Z","depth":0,"parameterNumber":3,"parameterNumberName":"V-component_of_WINDS"},"data":[0,0,0,0,0,0,0,0,0,0,0,0,0,0,0,0,0,0,0,0,0,0,0,0,0,0,0,0,0,0,0,0,0,0,0,0,0,0,0,0,0,0,0,0,0,0,0,0,0,0,0,0,0,0,0,0,0,0,2.7095,2.7094,0,2.7065,2.7064,2.7064,2.7097,2.7098,2.7099,2.7101,2.706,2.7058,2.7056,0,0,0,0,0,0,0,0,0,0,0,0,0,2.7173,2.7172,2.7095,2.7094,2.7094,2.7065,2.7064,2.7064,2.7096,2.7098,2.71,2.7101,2.7061,2.7058,2.7055,0,0,0,0,0,0,0,0,0,0,0,0,0,2.7141,2.7171,2.7095,2.7107,2.7108,2.7065,2.7064,2.7064,2.7096,2.7098,2.71,2.7102,2.7062,2.7058,2.7055,2.6995,0,0,2.7045,2.7043,0,0,0,0,0,0,0,0,2.7142,2.7138,2.7106,2.7106,2.7107,2.7087,2.7077,2.704,2.7096,2.71,2.7101,2.7103,2.7067,2.7063,2.7053,2.6994,2.6992,2.7044,2.7042,2.7041,2.704,0,0,0,0,0,0,0,2.7145,2.7139,2.7082,2.7105,2.7106,2.7112,2.7109,2.707,2.7073,2.71,2.7102,2.7099,2.7067,2.7056,2.7052,2.6991,2.7044,2.7041,2.7039,2.7038,2.6883,2.6881,0,0,0,0,0,0,2.7147,2.7141,2.7083,2.7082,2.713,2.7109,2.7106,2.7091,2.7073,2.7073,2.7097,2.7101,2.7061,2.7056,2.7051,2.6981,2.7041,2.7038,2.7036,2.6885,2.6883,2.688,0,0,0,0,0,0,2.7148,2.7141,2.7085,2.7112,2.7105,2.7105,2.7088,2.7089,2.7078,2.7071,2.7071,2.7086,2.7062,2.7056,2.701,2.698,2.7036,2.7033,2.6888,2.6884,2.6882,2.684,0,0,0,0,0,0,2.715,2.7142,2.712,2.7111,2.7104,2.7046,2.7086,2.7087,2.7073,2.7077,2.706,2.7059,2.7063,2.7015,2.7007,2.6976,2.703,2.689,2.6886,2.6883,2.6844,2.6836,2.6829,0,0,0,0,0,2.7153,2.7107,2.7119,2.7112,2.7078,2.7045,2.704,2.7048,2.7071,2.7049,2.7045,2.706,2.6985,2.701,2.7001,2.6969,2.6892,2.6887,2.6883,2.6847,2.6837,2.6829,0,0,0,0,0,0,2.7109,2.7106,2.7119,2.707,2.7058,2.705,2.7022,2.7037,2.7015,2.7019,2.7028,2.7023,2.6976,2.6968,2.6996,2.6911,2.6942,2.6935,2.6918,2.6908,2.6901,2.6903,2.7028,0,0,0,0,0,2.7094,2.707,2.7068,2.7025,2.7018,2.7022,2.7007,2.7015,2.7001,2.6995,2.6988,2.6972,2.6945,2.6926,2.6901,2.6844,2.684,2.6817,2.681,2.6803,2.6797,2.6767,2.6757,2.6865,2.6865,2.6865,0,0,2.7062,2.7058,2.7041,2.7016,2.7007,2.698,2.7017,2.6986,2.6965,2.6989,2.6947,2.6941,2.6924,2.6873,2.685,2.6864,2.6767,2.6798,2.6793,2.6789,2.6761,2.6751,2.6742,2.6862,2.6863,2.6863,0,0,2.6989,2.6984,2.6948,2.694,2.6928,2.6931,2.6923,2.6914,2.6912,2.6871,2.6889,2.6863,2.6816,2.6804,2.6791,2.6718,2.6731,2.6709,2.6668,2.6639,2.663,2.6623,2.6597,2.6587,2.6703,2.6703,2.6702,0,2.695,2.6913,2.6927,2.6896,2.6884,2.691,2.6872,2.6863,2.6841,2.6832,2.685,2.6794,2.6783,2.673,2.6713,2.6701,2.6691,2.671,2.6631,2.6624,2.6617,2.6592,2.6582,2.67,2.67,2.6701,2.6701,0,2.6865,2.6839,2.6811,2.6794,2.6779,2.6745,2.6752,2.6735,2.6745,2.6746,2.6703,2.6693,2.6666,2.6654,2.6662,2.6602,2.6612,2.6631,2.6661,2.6604,2.658,2.6571,2.6696,2.6697,2.6698,2.6699,0,0,2.6761,2.6756,2.6745,2.6739,2.6729,2.6708,2.6675,2.6653,2.6638,2.6623,2.6595,2.6557,2.6575,2.656,2.6567,2.6541,2.6484,2.6563,2.6563,2.6548,2.6418,2.6404,2.6393,2.6494,2.6492,2.6491,2.642,0,2.6689,2.6636,2.6649,2.6594,2.657,2.6595,2.6566,2.6556,2.6556,2.6534,2.6533,2.6506,2.6532,2.6524,2.65,2.6496,2.6458,2.6502,2.6465,2.6464,2.6469,2.6381,2.6365,2.6298,2.6411,2.6409,2.6408,0,2.6597,2.6583,2.6528,2.6524,2.6515,2.6489,2.6471,2.645,2.6439,2.6441,2.6427,2.6439,2.6405,2.6438,2.639,2.6419,2.6405,2.6402,2.6399,2.6395,2.6432,2.6373,2.6277,2.6267,2.6394,2.6395,2.6396,0,2.6527,2.6495,2.6458,2.6451,2.6446,2.6428,2.6424,2.6415,2.6402,2.6385,2.6376,2.6354,2.6342,2.6324,2.633,2.6353,2.628,2.6314,2.6279,2.6279,2.6262,2.6262,2.6161,2.6254,2.6254,2.6254,2.6255,0,2.6445,2.641,2.6427,2.6404,2.6365,2.638,2.6341,2.634,2.6332,2.6308,2.6327,2.6304,2.6313,2.629,2.6293,2.6253,2.6247,2.6247,2.6248,2.6245,2.6245,2.6234,2.6239,2.6252,2.6252,2.6253,2.6253,0,2.636,2.637,2.6332,2.6331,2.633,2.6302,2.63,2.6278,2.6281,2.6251,2.6244,2.6248,2.6221,2.6226,2.6195,2.6198,2.6148,2.6155,2.6153,2.6154,2.612,2.6123,2.6008,2.5994,2.6096,2.6095,2.6095,0,2.6306,2.6281,2.6279,2.6266,2.6262,2.6241,2.6229,2.6242,2.6228,2.6215,2.6194,2.6171,2.6152,2.6109,2.6107,2.6084,2.609,2.6052,2.6086,2.6085,2.6089,2.6091,2.6088,2.6044,2.6043,2.6042,2.6041,0,2.6211,2.6218,2.6201,2.6186,2.6172,2.616,2.615,2.6137,2.615,2.6133,2.6109,2.6095,2.6066,2.6042,2.6021,2.6015,2.6029,2.6031,2.6022,2.6017,2.6017,2.6017,2.6134,2.6033,2.6034,2.6034,2.6035,2.6035,2.6139,2.6119,2.6115,2.6096,2.6091,2.6081,2.6061,2.6063,2.6044,2.6024,2.6033,2.6005,2.5995,2.597,2.5961,2.5938,2.5952,2.5938,2.5935,2.5931,2.5927,2.6022,2.5934,2.5934,2.5934,2.5935,2.5935,0,2.6045,2.6045,2.6027,2.6014,2.5999,2.6019,2.6009,2.5994,2.597,2.5961,2.5944,2.5916,2.5894,2.5891,2.587,2.5851,2.5858,2.5845,2.5846,2.5844,2.5916,2.5926,2.5841,2.5841,2.5841,2.5841,2.5841,2.5841,2.5994,2.596,2.5967,2.593,2.5929,2.5904,2.5897,2.5888,2.5882,2.5851,2.5834,2.5834,2.5827,2.5806,2.5786,2.5786,2.5776,2.5761,2.5763,2.583,2.5839,2.5848,2.5858,2.5759,2.5759,2.5693,2.5693,2.5692]}]]